軌道要素
Epoch 2014 Jan. 23.0 TT = JDT 2456680.5
T 2014 Feb. 4.83182 TT MPCW
q 2.5223636 (2000.0) P Q
n 0.06508396 Peri. 319.05893 +0.57207543 -0.70909157
a 6.1209672 Node 91.86351 +0.81799760 +0.45643610
e 0.5879142 Incl. 24.35759 +0.06008016 +0.53745253
P 15.14
From 472 observations 1998 Sept. 23-2018 Apr. 23, mean residual 0".6.
|